Liège - Hors Challenge

Le jogging des fous à Liège (10.00 km)

vendredi 01 septembre 2017

 
LE JOGGING DES FOUS - LIEGE
DISTANCE : 10.00 km
vendredi 01 septembre 2017
 
Place dos NOM Catégorie Pl/cat temps temps/km Vitesse
1 4577 GEOFFRAY GILLET SENIORS 1 0:36:10 03:37 16.59
2 4824 GILLES POYSAT SENIORS 2 0:37:29 03:45 16.01
3 4186 LAURENT SPANU SENIORS 3 0:37:55 03:48 15.82
4 4589 JF CHARLIER VÉT1 1 0:38:19 03:50 15.66
5 4526 OLIVIER CEYSSENS SENIORS 4 0:38:31 03:51 15.58
6 4268 FRED LEKEU SENIORS 5 0:38:47 03:53 15.47
7 4479 EDOUARD SPANU SENIORS 6 0:39:26 03:57 15.22
8 4817 SEBASTIEN MAHIA SENIORS 7 0:39:50 03:59 15.06
9 4423 MATHIEU KILESSE SENIORS 8 0:40:17 04:02 14.89
10 4559 CYRILLE CHARLES SENIORS 9 0:40:26 04:03 14.84
11 4141 BENJAMIN RAHIER SENIORS 10 0:40:29 04:03 14.82
12 4519 FRANCOIS HERMAN SENIORS 11 0:40:59 04:06 14.64
13 4176 OLIVIER VARETTO SENIORS 12 0:41:05 04:06 14.60
14 4408 BASTIEN MENCHOIR SENIORS 13 0:41:06 04:07 14.60
15 4441 TIM VAN DEN BROECK SENIORS 14 0:41:12 04:07 14.56
16 4019 PATRICK CHRISTODOULEAS VÉT2 1 0:41:14 04:07 14.55
17 4367 DIMITRI MANFE SENIORS 15 0:41:36 04:10 14.42
18 4811 OLIVIER EK SENIORS 16 0:41:37 04:10 14.42
19 4395 AMIR HAKIMI ESPH 1 0:41:41 04:10 14.39
20 4389 ERIC MOUSSEBOIS SENIORS 17 0:41:48 04:11 14.35
21 4467 DIDIER BRUYERE SENIORS 18 0:41:48 04:11 14.35
22 4552 PIERRE JACQUERIE SENIORS 19 0:41:49 04:11 14.35
23 4156 CRISTIAN SEVILLA SENIORS 20 0:41:51 04:11 14.34
24 4485 TARAS JADUTA VÉT1 2 0:42:04 04:12 14.26
25 4328 HUGUES PONCELET SENIORS 21 0:42:16 04:14 14.20
26 4108 LUCA MERCIADRI SENIORS 22 0:42:19 04:14 14.18
27 4297 VINCENT CORNEROTTE SENIORS 23 0:42:29 04:15 14.12
28 4498 YVES BARTHO VÉT1 3 0:42:30 04:15 14.12
29 4313 BORIS VAESSEN SENIORS 24 0:42:42 04:16 14.05
30 4482 ERIC NEUTELEERS VÉT2 2 0:42:45 04:16 14.04
31 4510 GILLES CREMERS SENIORS 25 0:42:52 04:17 14.00
32 4554 BERTRAND HIGNY SENIORS 26 0:43:00 04:18 13.95
33 4486 NICOLAS COURTOY SENIORS 27 0:43:17 04:20 13.86
34 4020 JEAN-MARIE CHUDYBA VÉT1 4 0:43:26 04:21 13.81
35 4264 BENJAMIN MALENGREAUX SENIORS 28 0:43:38 04:22 13.75
36 4288 FOUSSENY AKONDO SENIORS 29 0:43:44 04:22 13.72
37 4300 MAXIME PIERARD SENIORS 30 0:43:45 04:23 13.71
38 4266 OLIVIER GERARD SENIORS 31 0:43:46 04:23 13.71
39 4582 JEAN YVES BURON SENIORS 32 0:43:51 04:23 13.68
40 4567 SAMUEL LEDOUX SENIORS 33 0:43:54 04:23 13.67
41 4541 PIERRE GEUBELLE SENIORS 34 0:44:01 04:24 13.63
42 4418 ANDRE ESTEBEZ VÉT1 5 0:44:02 04:24 13.63
43 4353 PIERRE ZOCCHI SENIORS 35 0:44:18 04:26 13.54
44 4375 MATHIEU HENSENNE SENIORS 36 0:44:37 04:28 13.45
45 4154 SÉBASTIEN SCHAUTTEET SENIORS 37 0:44:39 04:28 13.44
46 4463 GAUTHIER BURY SENIORS 38 0:44:48 04:29 13.39
47 4315 BENJAMIN EVRARD ESPH 2 0:44:53 04:29 13.37
48 4120 PASCAL PARENT VÉT1 6 0:45:02 04:30 13.32
49 4027 THIBAUT DASSESSE VÉT1 7 0:45:06 04:31 13.30
50 4840 FREDERIC DEJARDIN VÉT1 8 0:45:13 04:31 13.27
51 4387 THOMAS SCHMITS SENIORS 39 0:45:20 04:32 13.24
52 4101 LAURENT MAES SENIORS 40 0:45:20 04:32 13.24
53 4169 BENJAMIN THOMSIN SENIORS 41 0:45:31 04:33 13.18
54 4354 FLORIAN MELON SENIORS 42 0:45:36 04:34 13.16
55 4153 MAXENCE SCAFS SENIORS 43 0:45:44 04:34 13.12
56 4009 GUILLAUME BOINEM ESPH 3 0:45:49 04:35 13.10
57 4548 ANTOINE CHARLES SENIORS 44 0:45:53 04:35 13.08
58 4421 ROLAND EVRARD SENIORS 45 0:45:53 04:35 13.08
59 4442 CATHERINE PIERRON DAMES 1 0:45:57 04:36 13.06
60 4449 THOMAS VANHEUSCHEN SENIORS 46 0:45:58 04:36 13.05
61 4233 FRANCK SACRE GARCONS1215 1 0:46:11 04:37 12.99
62 4227 PIERRE REVE SOMVILLE VÉT1 9 0:46:13 04:37 12.98
63 4319 TANGUY DANIS SENIORS 47 0:46:24 04:38 12.93
64 4810 LUC BAILLY VÉT2 3 0:46:27 04:39 12.92
65 4049 FABRICE DIET VÉT1 10 0:46:31 04:39 12.90
66 4158 GRÉGOR STANGHERLIN VÉT1 11 0:46:31 04:39 12.90
67 4566 MICHAEL ANTOINE SENIORS 48 0:46:43 04:40 12.84
68 4286 ALIZEE BALAZUN DAMES 2 0:46:44 04:40 12.84
69 4157 JONATHAN SPRONCK SENIORS 49 0:46:47 04:41 12.83
70 4445 YANNICK BELVAUX SENIORS 50 0:47:00 04:42 12.77
71 4369 MICHEL BONJEAN SENIORS 51 0:47:01 04:42 12.76
72 4560 MARINE PANS DAMES 3 0:47:02 04:42 12.76
73 4235 HASSN HAOCCHINE VÉT1 12 0:47:06 04:43 12.74
74 4095 BRUNO LEDANT SENIORS 52 0:47:11 04:43 12.72
75 4109 KEVIN MIEVIS SENIORS 53 0:47:18 04:44 12.68
76 4444 GABRIEL BAHIANI SENIORS 54 0:47:19 04:44 12.68
77 4066 JEAN-YVES EVRARD VÉT1 13 0:47:35 04:46 12.61
78 4499 NICOLAS MICHEL SENIORS 55 0:47:38 04:46 12.60
79 4388 PIERRE FRANCOIS JANSSEN SENIORS 56 0:47:38 04:46 12.60
80 4046 DAVID DEWE GARCONS1215 2 0:47:47 04:47 12.56
81 4845 EMMANUEL GRAULET SENIORS 57 0:47:51 04:47 12.54
82 4218 GEORGES REGIBEAU VÉT2 4 0:47:53 04:47 12.53
83 4007 BERTRAND BAUCHE SENIORS 58 0:47:54 04:47 12.53
84 4842 GIUSEPPE VENERUCCI VÉT1 14 0:47:55 04:47 12.52
85 4285 LUDOVIC GRODENT SENIORS 59 0:47:55 04:47 12.52
86 4148 JEAN-PHILIPPE ROLIN SENIORS 60 0:47:58 04:48 12.51
87 4488 SYLVAIN FETTER SENIORS 61 0:48:01 04:48 12.50
88 4841 JEREMY BARBENCON SENIORS 62 0:48:01 04:48 12.50
89 4570 JULIEN LATTANI SENIORS 63 0:48:03 04:48 12.49
90 4340 CHRISTIAN KEBA SENIORS 64 0:48:08 04:49 12.47
91 4012 JEAN-LUC BOVY VÉT1 15 0:48:13 04:49 12.44
92 4036 MICHEL DELHAYE VÉT2 5 0:48:14 04:49 12.44
93 4420 ANTONIN LOUIS SENIORS 65 0:48:16 04:50 12.43
94 4343 HUGUES DORZEE VÉT1 16 0:48:18 04:50 12.42
95 4553 JEAN BAPTISTE ZEEVAERT SENIORS 66 0:48:26 04:51 12.39
96 4270 JEAN FRANCOIS DELOGE VÉT1 17 0:48:41 04:52 12.32
97 4985 JONAS GRETRY SENIORS 67 0:48:43 04:52 12.32
98 4832 CHRISTOPHE LUYCKX SENIORS 68 0:48:43 04:52 12.32
99 4081 ERIC HUBERT VÉT2 6 0:48:45 04:52 12.31
100 4579 MARTIN COPPENS SENIORS 69 0:48:50 04:53 12.29
101 4483 THOMAS DEDRY SENIORS 70 0:48:53 04:53 12.27
102 4524 MAXIME BODSON ESPH 4 0:48:56 04:54 12.26
103 4846 ARNAUD RUWET SENIORS 71 0:49:02 04:54 12.24
104 4551 PAUL JACQUERIE XXX   0:49:08 04:55 12.21
105 4236 NICOLAS BYNENS VÉT3 1 0:49:10 04:55 12.20
106 4070 NICOLAS FRANQUET SENIORS 72 0:49:11 04:55 12.20
107 4255 PATRICK DELARGE SENIORS 73 0:49:17 04:56 12.17
108 4344 LUC LEDOUX VÉT2 7 0:49:19 04:56 12.17
109 4316 GUY RAES VÉT3 2 0:49:19 04:56 12.17
110 4826 MATTHIEU COURTOY SENIORS 74 0:49:20 04:56 12.16
111 4217 THOMAS BEYER SENIORS 75 0:49:25 04:57 12.14
112 4339 HUGUES PEETERS VÉT1 18 0:49:34 04:57 12.10
113 4124 NICOLAS PETERS SENIORS 76 0:49:36 04:58 12.10
114 4107 ERIC MARTIN VÉT2 8 0:49:38 04:58 12.09
115 4522 VINCENT BODSON VÉT1 19 0:49:42 04:58 12.07
116 4428 OLIVIER SAIVE SENIORS 77 0:49:43 04:58 12.07
117 4404 BRUNO BEYER VÉT2 9 0:49:55 05:00 12.02
118 4545 MAUD GUILLAMS XXX   0:49:56 05:00 12.02
119 4068 FERNANDO FERREIRA SENIORS 78 0:49:58 05:00 12.01
120 4497 CLAUDE DELHEZ VÉT2 10 0:50:03 05:00 11.99
121 4025 JOEL DARCIS SENIORS 79 0:50:04 05:00 11.98
122 4564 MICHEL BARNABE VÉT2 11 0:50:04 05:00 11.98
123 4592 STEVE JASPAR VÉT1 20 0:50:05 05:00 11.98
124 4533 PIERRO WERRIMONT SENIORS 80 0:50:07 05:01 11.97
125 4298 MANUEL BOSCOLO VÉT1 21 0:50:09 05:01 11.96
126 4301 CHRISTOPHE NAA VÉT1 22 0:50:15 05:01 11.94
127 4341 ALEXANDRE PEETERS SENIORS 81 0:50:17 05:02 11.93
128 4201 LAURA DENOUZ DAMES 4 0:50:17 05:02 11.93
129 4088 DOROTHÉE LABAYE DAMES 5 0:50:18 05:02 11.93
130 4241 ANDRE LHEUREUX VÉT1 23 0:50:21 05:02 11.92
131 4568 RAPHAEL GILSON SENIORS 82 0:50:24 05:02 11.90
132 4546 JEAN SEBASTIEN CLAIRBOIS SENIORS 83 0:50:30 05:03 11.88
133 4311 GAETAN SEULCHRE SENIORS 84 0:50:47 05:05 11.81
134 4500 XXX XXX   0:50:47 05:05 11.81
135 4001 DANY AMHAZ VÉT1 24 0:50:50 05:05 11.80
136 4575 NICOLAS ROBERT SENIORS 85 0:50:50 05:05 11.80
137 4523 ROMAIN KAPEN SENIORS 86 0:51:03 05:06 11.75
138 4494 FREDERIC DUQUENNE SENIORS 87 0:51:04 05:06 11.75
139 4355 LIONEL SOLHEID VÉT1 25 0:51:09 05:07 11.73
140 4177 KEVIN VERDIURE SENIORS 88 0:51:10 05:07 11.73
141 4320 GUY LOUP DEVAUX SENIORS 89 0:51:13 05:07 11.71
142 4453 JMARE CUCCURU VÉT2 12 0:51:13 05:07 11.71
143 4263 JULIE SCHYNS DAMES 6 0:51:15 05:07 11.71
144 4103 XAVIER MAGONETTE SENIORS 90 0:51:18 05:08 11.70
145 4244 JEAN CHRISTOPHE OLIVIER VÉT1 26 0:51:19 05:08 11.69
146 4557 GUILLAUME XHIGNESSE SENIORS 91 0:51:30 05:09 11.65
147 4462 MAEL DANIS SENIORS 92 0:51:31 05:09 11.65
148 4295 MARTIN VINCENT ESPH 5 0:51:35 05:10 11.63
149 4384 REMI KILESSE SENIORS 93 0:51:36 05:10 11.63
150 4197 NICOLAS DUMAS SENIORS 94 0:51:39 05:10 11.62
151 4198 JULIEN MARMIERO SENIORS 95 0:51:40 05:10 11.61
152 4239 MICHAEL VAN RAEK SENIORS 96 0:51:46 05:11 11.59
153 4115 QUENTIN NICKS SENIORS 97 0:51:48 05:11 11.58
154 4843 ADRIEN SPINEUX SENIORS 98 0:51:58 05:12 11.55
155 4175 JEAN-MARC URBANI VÉT1 27 0:52:07 05:13 11.51
156 4472 CYRILLE LAHAYE GOFFART SENIORS 99 0:52:15 05:14 11.48
157 4443 ARTHUR MEERT SENIORS 100 0:52:17 05:14 11.48
158 4280 GUILLAUME SANSEN SENIORS 101 0:52:25 05:15 11.45
159 4118 FRANÇOIS-XAVIER NORO SENIORS 102 0:52:31 05:15 11.42
160 4061 BLAISE DUERINCKX VÉT2 13 0:52:34 05:15 11.41
161 4069 PIERRE-LOUIS FORGET SENIORS 103 0:52:34 05:15 11.41
162 4213 NICOLAS REGIBEAU SENIORS 104 0:52:45 05:17 11.37
163 4565 FREDERIC VERGNION SENIORS 105 0:52:50 05:17 11.36
164 4806 PIERRE BEUKELAERS SENIORS 106 0:52:52 05:17 11.35
165 4052 LUC DONNAY SENIORS 107 0:52:57 05:18 11.33
166 4277 ELIE HABRAN ESPH 6 0:53:01 05:18 11.32
167 4041 CHARLOTTE DERCLAYE AIN1 1 0:53:01 05:18 11.32
168 4576 CHRISTOPHE GUIBERT SENIORS 108 0:53:06 05:19 11.30
169 4030 BORIS DEFAYS SENIORS 109 0:53:09 05:19 11.29
170 4219 MAXIME PAILLOT SENIORS 110 0:53:13 05:19 11.27
171 4455 GREGORY VANDENBUSSCHE VÉT1 28 0:53:18 05:20 11.26
172 4501 PIERRE BOUTANGE SENIORS 111 0:53:18 05:20 11.26
173 4212 STEVE SOVENAU VÉT1 29 0:53:20 05:20 11.25
174 4454 ULYSSE JEAMMENT GARCONS1215 3 0:53:20 05:20 11.25
175 4403 MAXIME VAN GORP SENIORS 112 0:53:21 05:20 11.25
176 4385 FRANCOIS CHAPEAU SENIORS 113 0:53:21 05:20 11.25
177 4183 VALENTIN WIBAUT SENIORS 114 0:53:22 05:20 11.24
178 4350 CHRISTELLE BRACONE DAMES 7 0:53:22 05:20 11.24
179 4274 PHILIPPE ROI VÉT2 14 0:53:22 05:20 11.24
180 4527 XAVIER MARCHAL VÉT2 15 0:53:22 05:20 11.24
181 4446 MICHEL ZWAENEPOEL VÉT2 16 0:53:23 05:20 11.24
182 4184 PAUL WOUTERS VÉT2 17 0:53:23 05:20 11.24
183 4578 BILLY PANEL VÉT1 30 0:53:24 05:20 11.24
184 4324 ARNAUD PHILIPPART SENIORS 115 0:53:26 05:21 11.23
185 4405 GUILLAUME BEYER SENIORS 116 0:53:28 05:21 11.22
186 4309 BRUNO GABARD SENIORS 117 0:53:29 05:21 11.22
187 4563 HUGUES EVRARD VÉT1 31 0:53:30 05:21 11.21
188 4474 PIERRE DEMARET SENIORS 118 0:53:40 05:22 11.18
189 4075 RENAUD GILSOUL SENIORS 119 0:53:42 05:22 11.17
190 4468 SHADI ABU DALU XXX   0:53:46 05:23 11.16
191 4003 MATHIEU BARBASON SENIORS 120 0:53:49 05:23 11.15
192 4188 CHARLY CIANCONE GARCONS1215 4 0:53:50 05:23 11.15
193 4306 JEREMY DEMEURE SENIORS 121 0:53:53 05:23 11.14
194 4074 JÉRÔME GIERKENS SENIORS 122 0:53:53 05:23 11.14
195 4429 CECILE PAPS AIN1 2 0:53:54 05:23 11.13
196 4521 DAMIEN LEDUC SENIORS 123 0:53:55 05:23 11.13
197 4226 GINETTE SCHAFFRATH AIN2 1 0:53:55 05:23 11.13
198 4487 STEVEN BULTOT SENIORS 124 0:54:03 05:24 11.10
199 4199 GILLES RIMBAUD VÉT3 3 0:54:03 05:24 11.10
200 4023 GRÉGORY COLLETTE VÉT1 32 0:54:08 05:25 11.08
201 4062 NICOLAS DUMAZY VÉT1 33 0:54:08 05:25 11.08
202 4573 REGIS VANDER EMKEN SENIORS 125 0:54:08 05:25 11.08
203 4495 ANNE CATHERINE EVERS DAMES 8 0:54:09 05:25 11.08
204 4333 JACQUES DUSART SENIORS 126 0:54:16 05:26 11.06
205 4540 PIERRE GOBIN SENIORS 127 0:54:18 05:26 11.05
206 4207 MARIE KREUSCH DAMES 9 0:54:21 05:26 11.04
207 4471 QUENTIN NIESSEN SENIORS 128 0:54:23 05:26 11.03
208 4534 LISE VANEUKEM DAMES 10 0:54:25 05:27 11.03
209 4357 ANTOINE WIJNEN SENIORS 129 0:54:37 05:28 10.99
210 4238 DOMINIQUE JAMIN SENIORS 130 0:54:39 05:28 10.98
211 4518 BASTIEN REMI SENIORS 131 0:54:40 05:28 10.98
212 4493 PIERRE COLLIN VÉT2 18 0:54:41 05:28 10.97
213 4060 BENOÎT DUBRU VÉT1 34 0:54:42 05:28 10.97
214 4192 DAMIEN FRERE SENIORS 132 0:54:44 05:28 10.96
215 4558 JEAN CHRISTOPHE CULOT SENIORS 133 0:54:44 05:28 10.96
216 4224 PHILIPPE LARUE VÉT1 35 0:54:45 05:28 10.96
217 4371 ALFONSO ASENSIO SENIORS 134 0:54:48 05:29 10.95
218 4273 DAVID TAMIR SENIORS 135 0:54:48 05:29 10.95
219 4823 GAETAN WAUTELET SENIORS 136 0:54:48 05:29 10.95
220 4282 ROMAIN MOENS SENIORS 137 0:54:52 05:29 10.94
221 4583 J PAUL COLLARD SENIORS 138 0:54:53 05:29 10.93
222 4470 MICHEL LAPRELE VÉT1 36 0:54:53 05:29 10.93
223 4021 FRANÇOIS CLOSSON SENIORS 139 0:54:55 05:30 10.93
224 4284 CHRISTOPHE DEDRY SENIORS 140 0:54:56 05:30 10.92
225 4279 JEROME LHOIC VÉT1 37 0:54:56 05:30 10.92
226 4152 ISABELLE SAN JOSE DAMES 11 0:55:02 05:30 10.90
227 4312 FREDERIC PLUMIER VÉT1 38 0:55:07 05:31 10.89
228 4391 ALAIN HOUGRAND VÉT2 19 0:55:07 05:31 10.89
229 4394 OLIVIER HOUGRAND VÉT1 39 0:55:07 05:31 10.89
230 4484 JOCELYNE MEYER DAMES 12 0:55:08 05:31 10.88
231 4580 THOMAS RENSON SENIORS 141 0:55:09 05:31 10.88
232 4452 EDDY MICHEL SENIORS 142 0:55:12 05:31 10.87
233 4037 PATRICK DELHAYE VÉT2 20 0:55:13 05:31 10.87
234 4590 GEORGIOS MAKRYGIANNIS SENIORS 143 0:55:14 05:31 10.86
235 4458 MICHEL PETERS VÉT2 21 0:55:14 05:31 10.86
236 4000 JEAN SEBASTIEN HENNEIQUIAU SENIORS 144 0:55:17 05:32 10.85
237 4366 XXX XXX   0:55:20 05:32 10.84
238 4254 LAURENT MULLENS SENIORS 145 0:55:21 05:32 10.84
239 4588 CHRISTOPHE DEBRA SENIORS 146 0:55:29 05:33 10.81
240 4200 ALAIN LOHEST VÉT2 22 0:55:34 05:33 10.80
241 4821 ALLA KUZHEL DAMES 13 0:55:34 05:33 10.80
242 4432 AUDREY MATTIUZ DAMES 14 0:55:50 05:35 10.75
243 4496 MONIQUE KERIS AIN2 2 0:55:52 05:35 10.74
244 4481 YVES KEIL VÉT1 40 0:55:52 05:35 10.74
245 4410 MARC PETRIAUX VÉT1 41 0:55:54 05:35 10.73
246 4816 ALAIN SAUVEUR VÉT2 23 0:55:58 05:36 10.72
247 4838 VINCENT COMITO SENIORS 147 0:55:58 05:36 10.72
248 4040 MAVERICK DENIS SENIORS 148 0:55:59 05:36 10.72
249 4196 STEPHANE PIRE SENIORS 149 0:56:01 05:36 10.71
250 4240 JULIE PEETERS DAMES 15 0:56:03 05:36 10.70
251 4077 STÉPHANE HABETS VÉT1 42 0:56:07 05:37 10.69
252 4307 BENOIT BARBASON SENIORS 150 0:56:10 05:37 10.68
253 4537 TENKIR CORHAY SENIORS 151 0:56:10 05:37 10.68
254 4078 THIERRY HABRAN VÉT2 24 0:56:10 05:37 10.68
255 4532 STEPHANIE LEGISA DAMES 16 0:56:13 05:37 10.67
256 4243 JEAN MICHEL HORTEN VÉT1 43 0:56:20 05:38 10.65
257 4310 OLIVIER MALAY VÉT1 44 0:56:23 05:38 10.64
258 4807 SIMON REGNIER SENIORS 152 0:56:24 05:38 10.64
259 4414 GUY LAMBERT VÉT2 25 0:56:40 05:40 10.59
260 4079 OLIVIER HEMMER VÉT1 45 0:56:41 05:40 10.59
261 4457 PATRICE CARABIN VÉT1 46 0:56:41 05:40 10.59
262 4242 JULIEN MELON SENIORS 153 0:56:45 05:41 10.57
263 4260 LAURENT PILATTON SENIORS 154 0:56:46 05:41 10.57
264 4006 LUCIANO BATTISTINI VÉT3 4 0:56:54 05:41 10.54
265 4812 THOMAS DE MARCHIN SENIORS 155 0:56:55 05:41 10.54
266 4031 VALENTINE DEFER DAMES 17 0:57:10 05:43 10.50
267 4013 XAVIER BRUYERE SENIORS 156 0:57:11 05:43 10.49
268 4547 YVES LUCAS SENIORS 157 0:57:12 05:43 10.49
269 4513 OLIVIER LOGNOUL VÉT1 47 0:57:16 05:44 10.48
270 4085 GUY KRETTELS VÉT3 5 0:57:17 05:44 10.47
271 4253 HILAIRE SANTIAGO SENIORS 158 0:57:20 05:44 10.47
272 4424 MATTHIEU PEETERS SENIORS 159 0:57:20 05:44 10.47
273 4425 LAURA ANDRE DAMES 18 0:57:21 05:44 10.46
274 4210 CECILE GABRIEL AIN1 3 0:57:31 05:45 10.43
275 4542 CHRISTELLE LEONARD AIN1 4 0:57:33 05:45 10.43
276 4056 JEAN-YVES DONNAY VÉT1 48 0:57:39 05:46 10.41
277 4047 GARCIA DIAMBAKA SENIORS 160 0:57:41 05:46 10.40
278 4585 NICOLAS BERTRAND SENIORS 161 0:57:43 05:46 10.40
279 4530 PIERRE ALBART SENIORS 162 0:57:55 05:47 10.36
280 4258 BENJAMIN PIROTTE SENIORS 163 0:57:57 05:48 10.35
281 4127 JULIEN PIERRE SENIORS 164 0:57:57 05:48 10.35
282 4005 NICHOLAS BASTIN SENIORS 165 0:57:57 05:48 10.35
283 4818 THIBAUT RENSONNET XXX   0:58:00 05:48 10.34
284 4084 CHARLES JANSSENS SENIORS 166 0:58:00 05:48 10.34
285 4378 MANU PEUTEMAN SENIORS 167 0:58:06 05:49 10.33
286 4511 MEHDI EL HOUR GARCONS 1 0:58:07 05:49 10.32
287 4831 JULIAN HULS SENIORS 168 0:58:08 05:49 10.32
288 4376 ROMAIN VANEUKEM SENIORS 169 0:58:08 05:49 10.32
289 4400 BERNARD DEHOUX SENIORS 170 0:58:16 05:50 10.30
290 4359 HENRY DAVID THOREAU SENIORS 171 0:58:23 05:50 10.28
291 4549 XAVIER PIRARD SENIORS 172 0:58:23 05:50 10.28
292 4292 AMINE KHARROUBI GARCONS1215 5 0:58:51 05:53 10.20
293 4584 BENOIT WINDELS SENIORS 173 0:58:55 05:53 10.18
294 4334 DAPHNE SOVERYNS AIN1 5 0:58:58 05:54 10.18
295 4335 SERGE GHIRO VÉT1 49 0:58:59 05:54 10.17
296 4091 PHILIPPE LANGE VÉT1 50 0:58:59 05:54 10.17
297 4595 GERARD GERARDY SENIORS 174 0:59:05 05:54 10.16
298 4399 DIMITRI ARENDT SENIORS 175 0:59:10 05:55 10.14
299 4096 CHRISTINE LEJEUNE AIN1 6 0:59:12 05:55 10.14
300 4231 IGOR SACRE ESPH 7 0:59:14 05:55 10.13
301 4465 ARNAUD JEANMART VÉT1 51 0:59:14 05:55 10.13
302 4839 VINCENT MATHES SENIORS 176 0:59:15 05:55 10.13
303 4352 CHRISTELLE MATHIEU DAMES 19 0:59:19 05:56 10.12
304 4597 MAXENCE VANDEWALLE SENIORS 177 0:59:20 05:56 10.11
305 4214 JULIEN REGIBEAU SENIORS 178 0:59:21 05:56 10.11
306 4249 CHARLOTTE DECNEVILLE DAMES 20 0:59:23 05:56 10.10
307 4505 BARBARA NADIN AIN1 7 0:59:24 05:56 10.10
308 4800 CHRISTOPHE DETRIXHE VÉT1 52 0:59:29 05:57 10.09
309 4204 MAGALI BOEKER DAMES 21 0:59:37 05:58 10.06
310 4409 CARLO ALBA DAMES 22 0:59:39 05:58 10.06
311 4844 BASILE LENOIR SENIORS 179 0:59:41 05:58 10.05
312 4043 MATTHIAS DEWE VÉT1 53 0:59:41 05:58 10.05
313 4351 GREGORY TRATSAERT SENIORS 180 0:59:48 05:59 10.03
314 4034 JEAN-MICHEL DEHAZE VÉT1 54 0:59:55 06:00 10.01
315 4054 JEAN-MARIE DONNAY VÉT3 6 0:59:58 06:00 10.01
316 4251 NATHALIE LISIK AIN1 8 1:00:00 06:00 10.00
317 4191 CÉLINE DISPAS AIN1 9 1:00:00 06:00 10.00
318 4072 PHILIPPE GERON VÉT1 55 1:00:03 06:00 9.99
319 4998 XXX XXX   1:00:09 06:01 9.98
320 4528 ARNAUD DIZIER SENIORS 181 1:00:10 06:01 9.97
321 4531 PAULINE DIZIER DAMES 23 1:00:10 06:01 9.97
322 4402 VINCENT LEMOINE SENIORS 182 1:00:13 06:01 9.96
323 4057 LUCA DORATA SENIORS 183 1:00:13 06:01 9.96
324 4038 NICOLAS DELHAYE SENIORS 184 1:00:15 06:01 9.96
325 4390 PIERRE YVES SIZAIRE XXX   1:00:24 06:02 9.93
326 4515 JUNICE DUMONT DAMES 24 1:00:31 06:03 9.91
327 4801 MATHIAS GUNS SENIORS 185 1:00:35 06:03 9.90
328 4267 BERTRAND CORNELUSSE SENIORS 186 1:00:39 06:04 9.89
329 4814 J PASCAL ANCION VÉT2 26 1:00:41 06:04 9.89
330 4348 SALVATORE MONTALBANO SENIORS 187 1:00:41 06:04 9.89
331 4094 SANDRINE LECLERCQ DAMES 25 1:00:51 06:05 9.86
332 4543 EM BAROM VÉT2 27 1:00:52 06:05 9.86
333 4550 MATHIEU LANGER SENIORS 188 1:00:53 06:05 9.85
334 4194 MAGALI LECLERQ AIN1 10 1:00:55 06:05 9.85
335 4160 FRÉDÉRIC THEATRE VÉT1 56 1:00:55 06:05 9.85
336 4245 ARNAUD WAGELMANS VÉT1 57 1:00:59 06:06 9.84
337 4997 PATRICE MEWISSEN VÉT1 58 1:01:03 06:06 9.83
338 4093 SYLVIE LECLERCQ AIN1 11 1:01:11 06:07 9.81
339 4002 LUCIEN ARNOULD VÉT1 59 1:01:22 06:08 9.78
340 4507 JEROME LAMAIRE SENIORS 189 1:01:22 06:08 9.78
341 4383 LAURENCE LOUWET AIN1 12 1:01:35 06:09 9.74
342 4397 FRANCOIS GRAILLET SENIORS 190 1:01:38 06:10 9.73
343 4398 JULIEN LEMAIRE SENIORS 191 1:01:38 06:10 9.73
344 4556 CHRISTIAN MACK SENIORS 192 1:01:39 06:10 9.73
345 4159 SEBASTIAN STONIER SENIORS 193 1:01:41 06:10 9.73
346 4287 LUDIVINE LOFFET DAMES 26 1:01:57 06:12 9.69
347 4434 SABINE STAES POLET AIN2 3 1:01:57 06:12 9.69
348 4083 PHILIPPE JAMIN VÉT1 60 1:01:57 06:12 9.69
349 4299 JULIE BELOT DAMES 27 1:02:00 06:12 9.68
350 4364 GUY VERJANS VÉT1 61 1:02:01 06:12 9.67
351 4503 JEAN MARC PAQUE VÉT2 28 1:02:08 06:13 9.66
352 4247 OLIVIER DE LAMOTTE VÉT1 62 1:02:08 06:13 9.66
353 4593 GREGORY SCATTONI SENIORS 194 1:02:08 06:13 9.66
354 4382 LARA MALHERBE DAMES 28 1:02:14 06:13 9.64
355 4598 J FRANCOIS TOELEN SENIORS 195 1:02:16 06:14 9.64
356 4017 LAURA CERRADA DAMES 29 1:02:16 06:14 9.64
357 4596 STEPHANE ARNE VÉT1 63 1:02:17 06:14 9.63
358 4594 RAPHAEL DA CAS SENIORS 196 1:02:18 06:14 9.63
359 4338 MARC MEYERS VÉT1 64 1:02:22 06:14 9.62
360 4336 JULIEN HERREMANS DAMES 30 1:02:22 06:14 9.62
361 4538 MARTINE DEMARCHE AIN2 4 1:02:23 06:14 9.62
362 4211 FREDERIC LOURTIE SENIORS 197 1:02:27 06:15 9.61
363 4342 DENISE DUCHESNE AIN3 1 1:02:29 06:15 9.60
364 4086 SÉBASTIEN KRIER VÉT1 65 1:02:33 06:15 9.59
365 4035 CAROL DELFORGE DAMES 31 1:02:34 06:15 9.59
366 4195 PHILIPPE MEYENS VÉT3 7 1:02:35 06:15 9.59
367 4011 GABRIEL BOLLAND SENIORS 198 1:02:38 06:16 9.58
368 4146 JEAN-PHILIPPE RENAUD VÉT1 66 1:02:42 06:16 9.57
369 4229 NATHANAEL DEMEFFE SENIORS 199 1:02:53 06:17 9.54
370 4248 MATTHIEU THIMMESCH SENIORS 200 1:02:56 06:18 9.53
371 4029 OLIVIER DE LAMOTTE SENIORS 201 1:02:59 06:18 9.53
372 4308 VERONIQUE DE HARLEZ AIN2 5 1:03:07 06:19 9.51
373 4206 SARAH KREUSCH DAMES 32 1:03:09 06:19 9.50
374 4386 ALAIN ORBAN VÉT1 67 1:03:18 06:20 9.48
375 4411 OLIVIER D ATTARDI VÉT1 68 1:03:19 06:20 9.48
376 4808 TAN DUC NGUYEN VÉT2 29 1:03:24 06:20 9.46
377 4318 ALAIN PONCELET VÉT3 8 1:03:40 06:22 9.42
378 4478 VIRGINIE HAGELSTEIN DAMES 33 1:03:40 06:22 9.42
379 4174 NATHALIE TRIEST AIN1 13 1:03:40 06:22 9.42
380 4076 MAXIME GUSTIN SENIORS 202 1:03:40 06:22 9.42
381 4059 MICHEL D'OTRICOLI VÉT3 9 1:03:53 06:23 9.39
382 4440 DIDIER CORIN VÉT1 69 1:03:53 06:23 9.39
383 4438 NADIA SALLE AIN1 14 1:03:54 06:23 9.39
384 4317 JEAN DANIS VÉT2 30 1:04:03 06:24 9.37
385 4561 LUC GAVRAY VÉT2 31 1:04:10 06:25 9.35
386 4281 MICHEL BURNIAT XXX   1:04:12 06:25 9.35
387 4356 CHRISTINE GRONDAL AIN1 15 1:04:12 06:25 9.35
388 4222 PIERRE DECLERCK VÉT1 70 1:04:14 06:25 9.34
389 4230 JULIEN STAS SENIORS 203 1:04:26 06:27 9.31
390 4215 FREDERIC NICOSIA SENIORS 204 1:04:32 06:27 9.30
391 4302 PHILIPPE NOPPENS VÉT2 32 1:04:34 06:27 9.29
392 4822 XAVIER TONON VÉT1 71 1:04:43 06:28 9.27
393 4304 CHRISTOPHE MARCHOUL VÉT1 72 1:05:03 06:30 9.22
394 4536 DOMINIQUE MOES AIN2 6 1:05:04 06:30 9.22
395 4828 TOM DE COOMAN XXX   1:05:11 06:31 9.20
396 4018 DOMINIQUE CHRETIEN AIN2 7 1:05:12 06:31 9.20
397 4119 FRANÇOIS PALOMO VÉT2 33 1:05:12 06:31 9.20
398 4825 PATRICK FORCONE VÉT2 34 1:05:18 06:32 9.19
399 4504 JUSTINE BRONCKART DAMES 34 1:05:18 06:32 9.19
400 4506 ANTHONY GROSJEAN SENIORS 205 1:05:19 06:32 9.19
401 4508 AMELIE COCINAS GARCIA DAMES 35 1:05:38 06:34 9.14
402 4827 ROBERT BRUYERE SENIORS 206 1:05:42 06:34 9.13
403 4363 SARAH SIMON DAMES 36 1:05:44 06:34 9.13
404 4360 YAN POSSEN VÉT1 73 1:05:44 06:34 9.13
405 4112 LUCIE MOUTSCHEN DAMES 37 1:05:45 06:35 9.13
406 4994 XXX XXX   1:05:45 06:35 9.13
407 4114 DENIS MOUTSCHEN VÉT2 35 1:05:46 06:35 9.12
408 4469 THIBAUT LEROY SENIORS 207 1:05:49 06:35 9.12
409 4173 EVE THONON AIN1 16 1:05:54 06:35 9.10
410 4377 XAVIER NOKIN VÉT2 36 1:05:56 06:36 9.10
411 4373 BRUNO EVRARD VÉT2 37 1:05:56 06:36 9.10
412 4535 XXX XXX   1:05:57 06:36 9.10
413 4374 SO CONRADT AIN2 8 1:05:57 06:36 9.10
414 4322 EMELIE SCHENKELAARS FILLES 1 1:05:57 06:36 9.10
415 4323 STEPHANIE BLOCKX DAMES 38 1:05:57 06:36 9.10
416 4835 OLIVIER DEBIE VÉT2 38 1:05:57 06:36 9.10
417 4476 JULIEN HAGELSTEIN SENIORS 208 1:05:58 06:36 9.10
418 4837 ISABELLE LORIGENNE AIN1 17 1:05:59 06:36 9.09
419 4447 CECILE DARGENT AIN1 18 1:06:02 06:36 9.09
420 4125 MAXIME PETITJEAN SENIORS 209 1:06:13 06:37 9.06
421 4014 JEAN-PHILIPPE BRUYERE VÉT2 39 1:06:15 06:37 9.06
422 4089 DAMIEN LAMBERTS VÉT1 74 1:06:21 06:38 9.04
423 4509 KIM TRAN DAMES 39 1:06:23 06:38 9.04
424 4305 TERENCE QUESTIAUX SENIORS 210 1:06:27 06:39 9.03
425 4065 CHARLY DUSAUSOIT VÉT2 40 1:06:39 06:40 9.00
426 4042 FRANCK DETREZ VÉT2 41 1:06:41 06:40 9.00
427 4033 ALINE DEFRESNE DAMES 40 1:06:41 06:40 9.00
428 4256 LAURENT DAMOISEAUX VÉT1 75 1:06:42 06:40 9.00
429 4555 LOUIS VOS GARCONS1215 6 1:06:42 06:40 9.00
430 4502 PASCALE URBAIN AIN1 19 1:06:49 06:41 8.98
431 4250 AURELIE HERKENNE DAMES 41 1:06:49 06:41 8.98
432 4417 VALERIE BONNET AIN1 20 1:07:00 06:42 8.96
433 4809 KIM THU PHAN AIN2 9 1:07:09 06:43 8.94
434 4435 ERWIN KUYPERS VÉT1 76 1:07:10 06:43 8.93
435 4480 JOSE ISTAZ VÉT3 10 1:07:10 06:43 8.93
436 4451 SOLENE THUNNEUT AIN1 21 1:07:31 06:45 8.89
437 4330 CHRISTOPHE LOFFET SENIORS 211 1:07:33 06:45 8.88
438 4071 PHILIPPE GERARD VÉT2 42 1:07:51 06:47 8.84
439 4586 FLORENCE PIROTTON DAMES 42 1:07:55 06:48 8.83
440 4365 SEBASTIEN TASSET SENIORS 212 1:08:09 06:49 8.80
441 4381 LAURENT HALLEUX SENIORS 213 1:08:39 06:52 8.74
442 4380 CHRISTOPHE LEVAUX SENIORS 214 1:08:39 06:52 8.74
443 4456 DELPHINE MARCHAL AIN1 22 1:08:40 06:52 8.74
444 4804 CATHERINE CRICKBEER DAMES 43 1:08:54 06:53 8.71
445 4349 LUDOVIC MARCHAL VÉT1 77 1:08:55 06:53 8.71
446 4129 MAXIMILIEN PIERRE SENIORS 215 1:08:55 06:53 8.71
447 4128 MICHEL PIERRE VÉT3 11 1:08:55 06:53 8.71
448 4269 THERESE DUPONT DAMES 44 1:08:55 06:53 8.71
449 4024 ISABELLE COLLIN AIN1 23 1:09:00 06:54 8.70
450 4131 CHANTAL PIRONNET AIN1 24 1:09:00 06:54 8.70
451 4450 NICOLE BRUGGEN AIN2 10 1:09:12 06:55 8.67
452 4464 JOELLE HANSOTTE AIN2 11 1:09:22 06:56 8.65
453 4187 ANTOINE CIANCONE VÉT1 78 1:09:24 06:56 8.65
454 4448 PATRICK CEYSSENS VÉT1 79 1:09:36 06:58 8.62
455 4136 LUC POLLARD VÉT2 43 1:09:49 06:59 8.59
456 4097 PHILIPPE LERUSSE VÉT2 44 1:10:07 07:01 8.56
457 4179 LÉO VIATOUR GARCONS 2 1:10:07 07:01 8.56
458 4802 PIERRE SERVAIS VÉT1 80 1:10:07 07:01 8.56
459 4993 RONAN JURCABA SENIORS 216 1:10:24 07:02 8.52
460 4291 FETRO ELUIS XXX   1:10:26 07:03 8.52
461 4132 FRÉDÉRIC PLUMIER VÉT1 81 1:11:17 07:08 8.42
462 4123 DOROTHÉE PÊTE DAMES 45 1:11:17 07:08 8.42
463 4111 CATHERIN MORSA AIN1 25 1:11:18 07:08 8.42
464 4257 VERONIQUE ALIARD AIN3 2 1:11:18 07:08 8.42
465 4008 MURIEL BECKERS AIN1 26 1:11:18 07:08 8.42
466 4820 BENEDICTE HEINDRICHS AIN1 27 1:11:31 07:09 8.39
467 4819 EMMANUEL TOURPE VÉT1 82 1:11:31 07:09 8.39
468 4185 SOPHIE YPERSIEL AIN1 28 1:11:44 07:10 8.36
469 4813 MARTINE PONCIN AIN1 29 1:11:53 07:11 8.35
470 4999 SERGE DI GIOVANNI VÉT1 83 1:11:59 07:12 8.34
471 4261 GERARD DEPIENNE VÉT2 45 1:12:02 07:12 8.33
472 4294 CHRISTIAN NIZET VÉT3 12 1:12:02 07:12 8.33
473 4246 CHRISTIAN FONTAINE VÉT3 13 1:12:02 07:12 8.33
474 4190 ANNE-CÉCILE PAQUE AIN1 30 1:12:09 07:13 8.32
475 4189 CLAIRE PAQUE AIN1 31 1:12:09 07:13 8.32
476 4332 JULIEN LEMAIRE SENIORS 217 1:12:16 07:14 8.30
477 4803 LAURA MORANT DAMES 46 1:12:19 07:14 8.30
478 4514 PAULINE SIMON DAMES 47 1:12:20 07:14 8.29
479 4599 CELINE TIHON DAMES 48 1:12:25 07:14 8.29
480 4517 SATYA SIMON DAMES 49 1:12:31 07:15 8.27
481 4512 ROSARIA MENDALIE AIN2 12 1:12:35 07:15 8.27
482 4135 ALAIN POELMANS VÉT2 46 1:13:44 07:22 8.14
483 4122 MARTINE PESSER AIN2 13 1:13:44 07:22 8.14
484 4144 PHILIPPE REMY VÉT1 84 1:13:57 07:24 8.11
485 4272 PING POLLARA VÉT2 47 1:15:28 07:33 7.95
486 4150 MARINUS ROTTEVEEL VÉT1 85 1:15:36 07:34 7.94
487 4180 FRANÇOISE VIATOUR DAMES 50 1:15:51 07:35 7.91
488 4265 JACK FICARROTTA VÉT1 86 1:16:50 07:41 7.81
489 4262 KHADI BENOI DAMES 51 1:17:34 07:45 7.74
490 4346 ALEXANDRA COLLETTE DAMES 52 1:17:34 07:45 7.74
491 4581 ALICE SAUMON DAMES 53 1:17:44 07:46 7.72
492 4433 CHANTAL MAWET AIN2 14 1:18:10 07:49 7.68
493 4427 ANNE MARIE MOSCA AIN1 32 1:18:10 07:49 7.68
494 4489 SEGOLENE JANNE D OTHEE AIN1 33 1:18:25 07:51 7.65
495 4275 MARILOY HABRAN VÉT1 87 1:18:25 07:51 7.65
496 4830 MANON MOTTARD DAMES 54 1:20:19 08:02 7.47
497 4829 CATHERINE THOREAU DAMES 55 1:20:19 08:02 7.47
498 4431 THYS AIN2 15 1:20:50 08:05 7.42
499 4228 CARINE CLOTUCHE AIN1 34 1:21:33 08:09 7.36
500 4028 MARIE-JEANNE DE BOURNONVILLE MASY AIN2 16 1:22:05 08:12 7.31
501 4290 JEAN DEUAL VÉT2 48 1:22:14 08:13 7.30
502 4289 CHRISTINE GEORGE AIN2 17 1:22:14 08:13 7.30
503 4220 ALPHA BAKOMBA VÉT1 88 1:22:34 08:15 7.27
504 4221 GRAZIELLA VENDERAME AIN1 35 1:22:35 08:15 7.27
505 4259 MAGALI RIFFON AIN1 36 1:23:11 08:19 7.21
506 4525 SILVIANE KECH DAMES 56 1:23:12 08:19 7.21